Location: Unspecified
(10.5000°N, 0.0000°E)
Time: 17:42:48
(UTC+00:00)

N. Korean satellite - Visible Passes

Search period start: 16 June 2019 00:00
Search period end: 26 June 2019 00:00
Orbit: 455 x 510 km, 97.2° (Epoch: 16 June)

Date Brightness Start Highest point End Pass type
(mag) Time Alt. Az. Time Alt. Az. Time Alt. Az.
16 Jun 9.8 04:55:54 10° E 04:56:43 11° E 04:57:33 10° ESE visible
19 Jun 9.2 05:12:14 10° NE 05:14:57 21° E 05:17:42 10° SSE visible
23 Jun 9.4 05:05:46 10° ENE 05:08:09 17° E 05:10:33 10° SE visible
